Hourly Data Report for August 16, 2001

SHERBROOKE A
QUEBEC

45°26'00.000" N
71°41'00.000" W
241.40 m
7028124
71610
YSC

Download Data

Hourly Data (August 2001)
Hourly Data Report for August 16, 2001
TIME
LST
Temp Definition
°C
Dew Point Definition
°C
Rel Hum Definition
%
Precip. Amount Definition
mm

Wind Dir Definition
10's deg

Wind Spd Definition
km/h
Visibility Definition
km
Stn Press Definition
kPa
Hmdx Definition


Wind Chill Definition


Weather Definition


00:00 9.8 8.5 92     0 15.0 98.90      
01:00 8.7 8.3 97   11 4 15.0 98.90      
02:00 9.5 8.6 94   9 7 15.0 98.89      
03:00 10.9 8.8 87   7 7 15.0 98.87      
04:00 9.0 7.9 93   8 6 15.0 98.86      
05:00 8.0 7.4 96   8 6 15.0 98.86      
06:00 12.2 10.5 89   9 4 15.0 98.89      
07:00 16.3 12.6 79   5 4 24.1 98.91     Mainly Clear
08:00 19.8 13.8 68     0 24.1 98.92     Mostly Cloudy
09:00 21.9 15.2 66   29 4 24.1 98.92 26   Mostly Cloudy
10:00 25.1 16.0 57   19 7 24.1 98.85 30   Mostly Cloudy
11:00 26.1 14.9 50   20 11 24.1 98.81 30   Mostly Cloudy
12:00 27.9 14.3 43   20 9 24.1 98.75 31   Mostly Cloudy
13:00 27.5 14.1 44   19 15 24.1 98.71 31   Mostly Cloudy
14:00 27.5 14.3 44   24 9 24.1 98.67 31   Mostly Cloudy
15:00 28.0 13.9 42   22 15 24.1 98.62 31   Mostly Cloudy
16:00 27.3 13.3 42   22 11 24.1 98.59 30   Mostly Cloudy
17:00 27.5 14.3 44   22 7 15.0 98.60 31    
18:00 23.6 16.7 65   14 6 15.0 98.59 29    
19:00 22.3 14.7 62   18 6 15.0 98.59 26    
20:00 22.1 14.0 60     0 15.0 98.62 25    
21:00 21.9 13.7 60   25 4 15.0 98.62 25    
22:00 20.9 15.0 69   20 9 15.0 98.68 25   Rain
23:00 20.1 16.3 79   19 7 11.3 98.65 25   Rain

Notes on Data Quality.

Legend

  • E = Estimated
  • M = Missing
  • NA = Not Available*
  • [empty] = Indicates an unobserved value
Date modified: